RH
55 55 51 55 50 51 52 50 49 57 63 67 67 64 68 66 66 66 72 74 78 72 78 80 77 77 63 54 65 68 79 87 95 99 86 78 84 80 87 90 90 85 71 53
52 45 50 51 50 50 49 51 54 54 54 58 60 51 66 68 67 60 65 65 62 68 70 76 78 76 66 56 67 74 83 91 87 85 87 89 92 87 80 82 88 88 92 93
37 41 49 49 49 48 46 47 49 55 58 68 68 69 61 59 65 62 62 73 59 59 70 75 79 78 70 59 58 63 70 70 74 79 81 85 87 89 71 68 77 86 91 91
35 47 48 45 44 48 44 51 55 66 65 61 65 52 46 51 59 65 64 68 68 62 70 72 76 80 74 68 64 63 66 70 71 73 76 82 86 88 88 76 77 83 90 90
36 41 44 41 40 48 50 46 54 59 62 59 56 56 40 45 48 54 63 61 67 64 67 67 75 78 69 71 68 74 66 69 67 70 80 86 84 83 89 88 82 80 84 86
32 40 39 41 44 53 51 55 60 63 59 51 47 47 36 41 42 46 48 60 66 69 69 68 72 75 66 65 66 75 66 72 81 86 85 82 87 85 91 92 87 80 90 87
33 36 49 51 56 58 56 43 36 41 51 44 49 49 40 42 48 44 46 54 60 68 63 61 66 71 62 60 70 68 62 65 78 87 97 86 86 93 95 92 94 88 75 71
26 30 47 48 43 44 46 41 36 39 43 32 47 37 35 42 41 46 43 48 58 69 60 74 64 69 52 60 65 69 66 61 61 75 91 98 95 93 81 82 76 82 78 79
18 20 34 44 46 42 48 43 44 34 34 37 34 36 37 40 45 45 42 45 55 62 51 74 65 62 50 57 63 67 71 70 62 73 88 87 87 85 86 91 88 80 77 72
14 14 22 36 54 43 43 43 38 38 37 44 31 34 31 36 43 46 44 46 52 45 50 62 64 61 53 57 59 63 62 60 63 57 69 86 85 84 89 86 81 77 73 69
11 11 14 28 43 32 44 39 40 35 35 35 31 31 37 43 46 47 46 48 49 38 50 56 58 60 54 55 56 58 60 56 44 52 59 69 75 81 77 83 74 79 75 78
12 11 13 32 26 26 27 31 37 34 40 35 36 34 36 43 44 44 42 45 56 45 44 50 48 48 51 46 47 48 47 47 59 58 58 64 55 61 67 59 71 71 98 59
12 12 12 14 33 40 34 38 38 32 36 33 34 31 38 33 44 44 42 52 40 44 44 47 43 36 36 35 36 37 39 43 46 54 60 70 80 90 79 74 73 70 70 35
14 12 11 12 14 20 30 33 39 33 27 32 32 31 35 39 40 43 47 36 39 36 25 28 27 25 28 31 31 32 35 42 46 55 66 80 79 65 72 76 53 44 23 18
17 13 10 11 10 13 19 30 36 33 28 24 24 24 30 35 37 41 43 38 23 20 23 23 26 26 26 26 28 30 35 42 47 56 62 68 75 61 62 55 90 27 17 18
23 16 17 15 12 11 12 14 18 22 27 26 25 24 24 33 39 37 41 36 31 19 22 24 25 23 23 24 26 29 34 44 50 55 54 53 55 44 35 96 24 19 17 20
27 19 22 15 14 13 12 12 14 15 22 27 25 23 24 34 41 37 38 44 36 35 26 24 23 23 21 22 24 28 32 38 47 50 48 48 43 25 20 22 16 15 18 21
29 28 26 18 19 21 13 11 11 15 20 23 24 22 22 30 39 42 38 40 36 37 37 22 27 25 24 24 26 29 30 27 35 42 37 39 25 20 23 20 14 16 17 17
20 27 25 23 21 17 16 17 17 12 12 14 19 19 22 32 38 38 44 39 39 34 34 28 30 29 25 24 19 17 18 23 24 28 42 44 29 22 17 14 14 15 14 14
28 25 29 24 22 19 17 18 21 20 16 20 21 16 21 30 37 34 40 32 32 35 36 28 33 29 28 27 19 13 14 18 22 49 67 56 27 15 13 14 14 14 14 14
30 30 29 26 25 20 18 24 19 24 19 19 17 25 24 34 31 32 39 40 29 28 29 30 34 34 32 30 19 11 13 19 54 68 66 35 16 13 14 14 14 14 15 16
29 29 22 26 23 24 22 21 24 26 22 20 14 12 20 21 20 24 30 40 32 29 30 26 31 35 36 32 20 12 14 40 53 61 45 23 13 14 15 14 14 16 19 21
35 23 18 20 19 24 24 24 22 21 20 24 20 22 16 15 21 33 23 34 34 31 30 30 27 32 37 37 20 17 15 34 42 50 38 15 12 16 15 15 16 19 19 19
35 31 31 34 34 32 23 16 16 21 17 16 23 26 20 16 20 27 26 28 34 30 28 29 30 32 34 40 26 24 16 25 43 50 34 10 13 17 17 16 17 18 19 20
32 37 34 44 47 44 29 17 14 17 23 18 23 27 23 23 24 27 26 29 32 34 28 27 30 30 34 37 37 18 15 24 41 45 21 9 12 18 17 16 19 20 22 24
20 41 40 31 34 43 54 36 23 27 35 23 25 28 27 25 24 24 24 27 28 33 30 24 27 30 32 35 38 26 14 32 30 35 10 12 17 16 16 18 21 23 24 27
Wind_Speed
12 10 13 13 9 8 7 9 7 7 14 9 13 15 11 13 13 13 12 13 10 6 7 4 3 1 2 2 7 3 10 11 13 12 14 14 14 13 17 19 17 15 14 13
12 15 9 6 6 8 7 7 5 12 16 16 17 15 19 18 18 15 16 13 8 6 7 6 5 4 3 2 5 9 11 11 11 10 11 18 19 17 19 18 16 13 12 11
17 11 13 9 8 7 6 3 4 8 12 15 14 21 21 22 22 19 20 20 16 7 7 8 7 8 7 7 5 5 6 6 9 11 10 11 17 17 18 16 15 15 13 13
20 11 9 11 10 7 8 6 6 8 7 11 12 17 9 16 22 21 19 22 19 15 13 12 11 10 10 9 6 4 2 1 4 8 13 14 15 16 18 19 19 19 15 12
21 17 17 17 14 10 6 8 4 8 10 10 11 11 5 10 18 23 21 21 19 14 11 10 12 12 12 9 7 5 4 2 2 7 7 12 17 19 20 21 21 18 16 14
20 13 13 14 12 9 11 3 3 5 7 12 2 7 8 8 14 16 20 23 20 20 18 14 13 13 10 10 8 9 10 4 5 7 7 8 18 18 16 13 18 19 15 12
23 18 15 11 5 7 8 7 9 5 4 3 3 7 8 5 9 12 20 23 21 21 19 18 13 9 8 8 12 17 14 14 8 6 8 11 17 19 14 12 14 14 12 9
25 20 19 17 15 10 10 10 10 8 5 11 4 5 5 3 11 13 16 21 22 23 19 16 12 12 10 11 16 21 13 11 11 14 10 9 17 20 18 17 16 12 9 4
22 25 11 15 16 13 10 10 9 13 14 10 1 6 6 5 9 17 20 21 22 21 18 22 17 15 14 15 18 16 14 8 12 9 4 8 16 19 17 15 12 10 9 14
22 15 23 16 15 21 19 9 8 7 4 5 3 5 8 6 6 19 21 20 20 19 21 21 20 17 16 17 17 17 14 9 10 10 19 18 15 18 16 15 14 10 9 6
25 19 15 20 22 20 14 15 15 13 11 8 7 6 9 6 10 17 19 20 19 16 19 21 20 18 17 16 16 15 14 12 7 8 1 8 14 16 14 12 7 3 3 5
26 20 24 18 17 23 29 21 16 14 9 8 8 10 12 6 11 16 19 19 19 17 16 17 19 18 18 15 15 14 12 12 12 11 6 9 8 9 7 6 5 5 4 7
24 21 21 22 14 11 20 22 18 16 8 10 10 2 9 6 10 17 19 19 17 19 17 17 20 18 17 16 15 13 12 12 10 10 7 7 6 3 5 6 4 4 2 5
24 26 27 25 23 18 20 21 20 18 16 10 10 11 5 4 9 19 19 19 15 14 17 19 20 19 17 15 13 13 12 12 10 12 11 9 6 4 5 4 2 5 2 3
21 23 25 25 21 18 17 22 23 23 21 18 12 8 5 5 6 20 21 19 15 16 20 23 21 19 17 17 15 13 13 13 12 12 12 11 9 8 8 6 4 4 1 3
16 16 14 20 22 23 25 25 25 24 26 20 19 15 10 9 11 17 22 21 19 17 20 19 19 18 16 16 14 13 12 13 11 10 10 10 9 9 7 4 4 2 3 2
10 14 13 19 17 19 28 27 26 26 23 21 19 12 8 7 14 21 22 24 22 19 18 18 17 15 14 14 13 12 12 13 13 12 10 9 9 8 5 3 3 3 3 2
11 13 13 17 13 19 20 19 21 27 25 25 23 19 14 11 9 19 25 26 26 23 19 19 19 19 18 16 16 16 15 14 14 12 10 5 6 6 4 4 3 4 4 3
22 14 15 18 21 20 16 15 19 19 26 26 24 22 16 12 11 9 26 29 29 24 23 21 19 18 19 18 15 16 17 16 15 13 9 6 5 4 5 5 6 5 3 4
21 22 19 16 19 18 19 18 15 15 21 19 21 26 17 17 12 9 13 34 29 30 27 26 24 23 22 21 16 16 17 17 15 10 7 6 6 6 6 6 6 5 5 5
25 25 29 28 24 21 19 14 15 18 14 23 22 15 23 19 16 8 8 25 31 28 27 32 27 26 25 23 17 17 18 17 13 11 9 8 7 7 7 7 7 7 7 6
23 20 29 31 30 30 19 20 19 19 20 16 20 22 25 22 20 16 13 14 36 34 34 30 30 27 25 24 20 17 18 18 15 14 11 10 8 8 9 9 9 8 8 9
25 30 27 24 26 23 25 28 27 27 21 21 19 18 23 27 22 22 21 19 37 39 35 34 28 27 22 24 22 20 20 20 18 15 11 11 11 10 11 11 11 11 11 12
25 29 30 20 24 19 29 29 35 30 30 27 26 19 25 28 28 18 24 28 25 42 41 36 36 33 30 27 23 23 22 20 16 16 14 13 14 13 13 13 14 14 14 13
27 26 35 27 17 19 29 33 32 31 30 30 28 26 28 26 24 24 20 31 27 34 45 41 38 34 34 30 29 25 25 21 18 16 16 16 17 17 17 18 17 17 15 13
36 32 29 29 25 26 14 33 33 31 34 36 32 27 24 25 22 21 22 23 26 30 44 45 39 34 34 34 34 28 27 24 18 14 16 16 18 22 22 22 19 17 16 15
Wind_Direction
202 202 208 215 208 208 229 273 309 243 232 227 251 252 264 250 236 223 210 208 209 224 218 220 212 225 274 338 4 134 171 178 173 187 191 203 197 179 172 183 197 193 191 198
210 216 210 193 197 216 254 282 253 233 252 242 255 262 257 255 240 218 213 185 181 220 239 231 221 203 226 155 81 99 124 147 160 169 179 188 195 188 186 189 193 202 213 216
215 223 204 205 219 227 232 275 300 257 256 244 251 263 255 248 242 229 216 218 230 217 239 213 214 208 208 200 161 109 108 148 188 199 188 175 190 192 193 197 198 209 220 216
220 217 181 206 227 229 257 263 274 229 229 255 227 276 260 239 230 225 215 214 223 229 225 216 210 211 212 216 210 207 196 126 117 182 199 184 173 178 193 201 208 209 204 207
215 223 227 239 245 240 265 273 257 243 247 278 246 262 295 220 221 219 217 211 206 198 194 206 207 205 213 211 206 168 180 177 169 114 141 186 188 191 196 204 208 207 209 213
223 218 220 237 237 222 225 240 245 249 255 247 253 273 306 222 213 212 214 203 196 200 198 198 206 207 217 205 179 156 110 117 205 209 197 182 190 187 185 209 208 204 202 208
218 227 228 220 213 213 204 233 261 215 206 246 210 295 283 265 199 203 201 191 187 187 188 202 217 212 214 182 165 149 116 95 93 119 184 191 188 190 190 175 164 180 188 188
212 201 220 222 224 222 224 264 292 310 288 322 220 266 29 311 209 182 187 190 192 194 199 199 205 213 195 175 156 162 154 125 85 58 156 140 165 171 172 165 162 174 163 184
213 226 201 211 219 216 227 248 256 285 261 262 226 303 291 331 212 186 184 188 196 198 203 197 204 203 190 178 166 165 173 186 60 57 89 152 170 166 165 157 162 176 158 151
224 234 222 226 215 236 234 261 247 225 283 296 265 259 8 325 198 191 186 193 196 198 195 193 201 200 193 187 179 183 173 144 168 88 76 101 149 147 128 134 151 156 166 188
219 220 212 218 226 227 222 234 249 269 272 307 291 52 356 322 194 186 187 186 189 203 203 198 197 195 194 193 194 197 195 180 192 166 120 88 116 124 141 143 147 168 191 233
209 223 226 223 240 232 235 239 234 238 195 241 303 300 354 348 179 179 182 185 188 195 198 202 194 194 196 192 190 189 184 180 205 202 208 149 150 119 110 137 166 203 228 288
209 220 233 218 216 225 216 222 228 238 264 268 287 341 13 33 172 167 179 185 199 199 199 200 193 193 193 187 189 184 177 175 186 166 189 176 174 168 172 185 215 314 273 285
203 222 225 231 229 224 216 217 223 226 240 245 234 303 292 1 181 174 178 189 202 211 197 190 179 179 184 185 187 184 174 171 169 175 176 174 187 188 207 221 278 282 272 262
211 229 232 237 241 232 225 223 220 225 243 262 262 288 291 281 210 195 184 192 189 185 176 172 175 178 181 183 185 192 184 174 181 181 182 193 196 206 224 252 224 281 270 221
215 226 224 234 235 235 239 235 235 233 244 252 254 272 279 252 208 195 193 193 192 176 175 177 185 185 187 185 190 194 193 184 181 182 187 197 205 233 242 239 218 233 225 198
198 212 224 237 230 234 236 234 237 237 235 234 238 241 264 263 221 203 206 202 197 193 179 186 191 196 192 191 194 199 197 197 192 189 197 209 226 230 183 196 226 222 201 185
217 220 230 241 225 236 243 242 238 234 233 238 246 248 259 242 256 219 215 212 207 196 195 192 201 203 203 196 194 198 199 202 196 191 191 182 179 200 185 248 241 224 198 167
223 217 233 233 236 249 238 238 234 234 239 238 243 247 237 241 236 241 212 211 210 205 193 206 208 208 207 206 206 202 194 192 192 181 168 175 196 216 229 229 226 213 180 150
224 228 228 231 246 249 244 241 229 234 241 232 229 235 235 224 210 234 246 214 209 211 208 209 213 218 214 211 209 202 191 189 178 173 182 211 222 222 219 219 217 195 173 152
210 220 227 231 237 245 236 225 230 223 220 227 235 214 219 210 218 246 213 215 206 199 205 207 213 224 223 218 212 200 188 181 176 184 214 222 218 215 216 211 200 188 169 163
211 213 224 232 236 236 225 231 223 232 230 221 227 231 204 206 209 213 226 211 203 202 202 198 207 221 221 218 217 204 193 184 190 202 223 222 216 212 207 201 195 183 175 168
226 227 234 227 235 232 227 222 229 229 232 223 219 214 199 215 201 215 236 215 204 207 208 208 212 214 218 216 219 206 200 192 195 205 218 217 212 209 207 198 189 184 174 163
230 230 227 228 228 222 223 223 227 231 227 235 237 219 207 213 217 217 218 222 206 208 210 211 215 215 222 223 220 206 204 191 193 210 217 213 210 210 206 200 190 180 172 165
218 236 226 226 216 206 226 225 230 231 228 226 231 236 225 220 223 218 227 207 206 208 209 210 215 219 221 223 223 219 202 192 199 211 215 211 209 209 205 196 190 185 175 173
231 236 230 233 234 235 235 232 222 221 217 224 221 222 224 221 221 214 216 218 223 209 207 210 218 218 221 220 219 223 207 194 193 203 212 209 205 208 205 197 193 188 185 187